www.pogodaiklimat.ru

Погода и климат >> Архив погоды >> Монголия >> Улаангом


ПОГОДА в Улаангоме

  • Прогноз погоды в Улаангоме
  • Монитор погоды в Улаангоме

АРХИВ ПОГОДЫ в Улаангоме

Время (UTC), дата Ветер
(напр.,м/с)
 
Видим.   Явления Облачность Т
(С)
Тd
(С)
f
(%)
Тe
(С)
Тes
(С)
Комфортность P
(гПа)
Po
(гПа)
Тmin
(С)
Tmax
(С)
R
(мм)
R24
(мм)
S
(см)
21 11.07 СЗ 4 50 км в посл. час дождь 10/10 600 м
[Sc]
+13.5 +10.5 82 +12 +12 1011.6 904.6
00 12.07 С 3 50 км {дождь} 8/8 600 м
[Sc]
+14.1 +10.3 78 +13 +13 1011.6 904.8 +13.1 21
03 12.07 С 4 50 км 8/6 600 м
[Cu med, cong Ci sp]
+16.4 +11.6 73 +16 +19 1011.2 905.3
06 12.07 С 3 50 км 8/8 600 м
[Cu med, cong]
+19.1 +12.6 66 +20 +23 1009.6 904.8
09 12.07 С 3 50 км 8/8 600 м
[Cu med, cong]
+20.2 +12.7 62 +22 +24 комфорт 1008.0 903.7
12 12.07 СВ 1 50 км 8/4 600 м
[Cb calv Ac lent]
+20.5 +12.7 61 +24 +24 комфорт 1008.1 903.9 +21.0
15 12.07 З 2 50 км 6/4 600 м
[Sc Ac lent]
+16.1 +11.1 72 +16 +16 1010.5 904.5
18 12.07 С 4 50 км 8/8 600 м
[Sc]
+16.6 +9.5 63 +16 +16 1009.7 904.0
21 12.07 З 2 50 км 8/8 600 м
[Sc]
+15.1 +10.5 74 +15 +15 1009.5 903.3
00 13.07 СЗ 3 50 км слаб. дождь 9/0 600 м
[As op]
+13.5 +11.7 89 +12 +13 1010.2 903.4 +12.8 15
03 13.07 С 5 50 км {дождь} 8/5 600 м
[Cu med, cong Ac trans]
+17.3 +11.8 70 +17 +19 1008.1 902.8
06 13.07 С 3 50 км {дождь} 8/8 600 м
[Sc]
+19.1 +13.5 70 +20 +23 1006.6 902.1
09 13.07 штиль 0 50 км 6/6 600 м
[Sc]
+20.6 +12.6 60 +23 +28 комфорт 1005.1 901.2
12 13.07 Ю 1 50 км {дождь} 8/8 600 м
[Cu med, cong Ac lent Ci ing]
+21.2 +12.3 57 +23 +24 комфорт 1004.6 901.0 +21.8 9
15 13.07 З 2 50 км 8/6 600 м
[Cu med, cong Ac lent]
+17.1 +13.0 77 +17 +17 1006.8 901.6
18 13.07 ЮЗ 3 н/о 5/0
[Ac trans]
+14.3 +12.2 87 +13 +13 1007.4 901.1
21 13.07 ЮЗ 4 н/о 6/4
[Sc diur, vesp Ac cuf]
+13.3 +10.8 85 +12 +12 1007.2 900.6
00 14.07 Ю 1 50 км 8/8 600 м
[Sc]
+17.1 +13.4 79 +18 +19 1005.7 900.6 +13.3
03 14.07 С 3 50 км 8/3 600 м
[Cu med, cong Ac lent Cc]
+21.9 +10.4 48 +24 +28 комфорт 1005.7 900.1
06 14.07 СВ 2 50 км 8/5 1000 м
[Cu med, cong Ac lent]
+23.9 +11.9 47 +26 +30 жарко 1001.4 899.0
09 14.07 В 4 50 км 8/6 600 м
[Cu med, cong Ac lent]
+24.3 +12.3 47 +26 +28 жарко 1000.5 898.3
12 14.07 С 2 50 км в посл. час дождь 8/8 600 м
[Cu med, cong]
+22.8 +11.2 48 +25 +25 комфорт 1001.8 899.0 +24.9 0.0
15 14.07 С 1 50 км {дождь} 8/8 600 м
[Sc]
+19.6 +14.2 71 +22 +22 комфорт 1003.5 899.5
18 14.07 С 5 50 км {дождь} 9/9 600 м
[Sc]
+18.2 +12.2 68 +18 +18 1003.6 899.1
21 14.07 С 2 50 км слаб. дождь 10/0 600 м
[As op]
+16.4 +13.1 81 +17 +17 1004.4 899.2
00 15.07 СЗ 5 50 км {дождь} 10/10 600 м
[Sc]
+15.6 +11.2 75 +14 +14 1005.2 899.6 +15.4 4
03 15.07 С 4 50 км 6/3 1000 м
[Cu hum Ac trans Cs]
+20.7 +8.4 45 +22 +26 комфорт 1002.8 899.2
06 15.07 С 4 50 км 6/6 1000 м
[Cu hum]
+22.9 +7.8 38 +24 +29 комфорт 1001.1 898.4
09 15.07 В 5 50 км 5/5 1000 м
[Cu med, cong]
+23.7 +7.8 36 +24 +27 комфорт 1000.1 897.8
12 15.07 Ю 4 50 км 4/0
[As trans]
+23.0 +7.9 38 +24 +25 комфорт 1000.4 897.8 +24.2
15 15.07 Ю 2 50 км 8/4 600 м
[Frnb As trans]
+16.5 +13.8 84 +17 +17 1003.6 898.5
18 15.07 Ю 4 50 км 5/0
[Ac trans]
+15.8 +10.8 72 +15 +15 1003.4 898.1
21 15.07 Ю 2 50 км 5/0
[As op]
+12.8 +10.5 86 +12 +12 1004.6 898.1
00 16.07 З 2 50 км 8/8 600 м
[Sc]
+16.2 +12.0 76 +16 +17 1003.5 898.3 +11.7
03 16.07 СЗ 4 2000 м 9/9 600 м
[Sc]
+19.0 +13.2 69 +20 +21 1002.3 898.2
06 16.07 С 4 2000 м 8/8 600 м
[Sc]
+20.3 +13.3 64 +23 +25 комфорт 1001.7 898.1
09 16.07 СВ 3 2000 м слаб. ливневой дождь {гроза} 10/10 600 м
[Cb calv]
+15.2 +14.2 94 +14 +14 1004.3 898.7
12 16.07 СВ 2 50 км в посл. час ливневой дождь {гроза} 10/8 600 м
[Cb calv]
+18.0 +12.9 72 +19 +19 1002.1 897.7 +21.9 17
15 16.07 В 2
{12}
н/о {гроза, ливн. осадки} 8/4 1000 м
[Cu med, cong Ac As]
+13.7 +11.4 86 +13 +13 1006.8 900.4
18 16.07 З 2 н/о 8/0
[Ac As]
+15.1 +10.1 72 +15 +15 1006.3 900.4
21 16.07 Ю 3 50 км 5/0
[Ac trans]
+12.8 +9.8 82 +11 +11 1006.8 900.1
00 17.07 Ю 1 50 км 4/0
[Ac cast]
+15.1 +10.9 76 +16 +17 1007.0 901.1 +11.3 4
03 17.07 штиль 0 50 км 5/0
[Cs]
+19.5 +11.0 58 +21 +34 комфорт 1006.4 902.0
06 17.07 С 2 50 км 6/4 600 м
[Cu hum Ci fib]
+22.2 +11.3 50 +24 +34 комфорт 1004.8 901.5
09 17.07 Ю 1 50 км 8/4 600 м
[Cu hum Ci ing]
+22.5 +11.6 50 +25 +31 комфорт 1004.2 901.1
12 17.07 Ю 2 50 км 8/0
[Ac trans]
+22.3 +11.1 49 +24 +25 комфорт 1005.0 901.7 +23.5
15 17.07 З 1 н/о 3/0
[Ac lent]
+18.6 +15.3 81 +21 +21 комфорт 1007.5 902.7
18 17.07 Ю 3 н/о 3/0
[Ac lent]
+15.5 +13.3 87 +15 +15 1009.0 903.0
21 17.07 Ю 4 50 км 6/0
[Ac trans]
+14.7 +11.8 83 +13 +13 1009.3 903.0
00 18.07 Ю 1 50 км 1/1 600 м
[Cu hum]
+17.4 +13.5 78 +18 +20 1008.4 903.1 +13.7
03 18.07 С 2 50 км 6/3 600 м
[Cu hum Ac cast]
+22.1 +12.9 56 +25 +30 комфорт 1006.3 902.8
06 18.07 В 2 50 км 6/4 600 м
[Cu med, cong Ac cast]
+24.2 +12.5 48 +26 +34 жарко 1004.0 901.4
09 18.07 С 2 50 км {гроза} 6/3 600 м
[Sc diur, vesp Ac trans]
+24.3 +13.2 50 +26 +32 жарко 1003.0 900.6
12 18.07 В 2 50 км 8/4 600 м
[Cu med, cong Ac trans Ci fib]
+25.1 +9.0 36 +26 +26 жарко 1001.7 899.7 +25.2
15 18.07 штиль 0 50 км 6/0
[Ac cuf]
+18.5 +15.7 84 +19 +19 1004.5 900.0
18 18.07 З 1 н/о 5/0
[Ac trans]
+16.4 +13.1 81 +17 +17 1004.9 899.6

 

Местоположение метеостанции Улаангом (Монголия): широта 49.80 долгота 92.08 высота над уровнем моря 939 м.

В архиве по умолчанию представлена погода в Улаангоме за последнюю неделю. Архивные данные за месяц целиком и за предыдущие месяцы, начиная с января 2011 года, Вы можете получить, выбрав интересующий диапазон дат из раскрывающегося списка и нажав кнопку "Ввод!".


*Определитесь, кто Вы:
робот инопланетянин человек

Внимание! Время в таблицах - всемирное. Для получения местного времени необходимо прибавить поправку, которая равна 8 ч.

Смотрите также архив погоды в соседних городах и на ближайших метеорологических станциях:

Погода в Умнегове (Монголия) (91 км)
Погода в Хандагайты (Тува, Россия) (105 км)
Погода в Ногооннууре (Монголия) (126 км)
Погода в Завхане (Монголия) (132 км)
Погода в Мугур-Аксы (Тува, Россия) (134 км)
Погода в Баруунтурууне (Монголия) (168 км)
Погода в Чадане (Тува, Россия) (168 км)
Погода в Углие (Монголия) (183 км)
Погода в Шагонаре (Тува, Россия) (186 км)
Погода в Тээли (Тува, Россия) (190 км)

Пояснения к столбцам:

Ветер - указаны скорость ветра в м/с - средняя за 10 мин, порывы в срок и между сроками (в фигурных скобках) и направление, откуда дует ветер: С - северный, СВ - северо-восточный, В - восточный, ЮВ - юго-восточный, Ю - южный, ЮЗ - юго-западный, З - западный, СЗ - северо-западный.
Видимость - горизонтальная дальность видимости в метрах или километрах. При видимости от 1 до 10 км при отсутствии осадков обычно наблюдается дымка, при ухудшении видимости до 1 км и менее - туман. В сухую погоду видимость может ухудшаться дымом, пылью или мглою.
Явления - указаны атмосферные явления, наблюдавшиеся в срок или в последний час перед сроком; фигурными скобками обозначены явления, наблюдавшиеся между сроками (за 1-3 часа до срока); квадратными скобками обозначены град или гололедные отложения с указанием их диаметра в мм.
Облачность - указаны через наклонную черту общая и нижняя облачность в баллах и высота нижней границы облаков в метрах; квадратными скобками обозначены формы облаков: Ci - перистые, Cs - перисто-слоистые, Cc - перисто-кучевые, Ac - высококучевые, As - высокослоистые, Sc - слоисто-кучевые, Ns - слоисто-дождевые, Cu - кучевые, Cb - кучево-дождевые. Подробнее классификацию облаков см. в Атласе облаков (PDF).
T - Температура воздуха - температура, измеренная на высоте 2 м над землей.
Td - Температура точки росы - температура, при понижении до которой содержащийся в воздухе водяной пар достигнет насыщения.
f - Относительная влажность воздуха - влажноcть воздуха, измеренная на высоте 2 м над землей.
Te - Эффективная температура - температура, которую ощущает одетый по сезону человек в тени. Характеристика душности погоды. При расчете учитывается влияние влажности воздуха и скорости ветра на теплоощущения человека.
Tes - Эффективная температура на солнце - температура, которую ощущает человек, с поправкой на солнечный нагрев. Характеристика знойности погоды. Зависит от высоты солнца над горизонтом, облачности и скорости ветра. Ночью, в пасмурную погоду, а также при ветре 12 м/с и более поправка равна нулю.
P - Атмосферное давление - приведенное к уровню моря атмосферное давление.
Po - Атмосферное давление - измеренное на уровне метеостанции атмосферное давление.
Tmin - Минимальная температура - минимум температуры воздуха на высоте 2 м над землей.
Tmax - Максимальная температура - максимум температуры воздуха на высоте 2 м над землей.
R - Количество осадков - Количество выпавших осадков за период времени, мм. При наведении курсора мыши на число - период времени, за который выпало указанное количество осадков.
R24 - Количество осадков - Количество выпавших осадков за 24 часа, мм.
S - Снежный покров - Высота снежного покрова, см. При наведении курсора мыши на число - состояние снежного покрова и степень покрытия местности в баллах.